Regional Weather Roundup
Issued by NWS

Home | Current Version | Previous Version | Text Only | Print | Product List | Glossary Off
Versions: 1 2 3 4 5 6 7 8 9 10 11 12 13 14 15 16 17 18 19 20 21 22 23 24 25 26 27 28 29 30 31 32 33 34 35 36 37 38 39 40 41 42 43 44 45 46 47 48 49 50

000
ASUS43 KOAX 171702
RWRNE

WEATHER ROUNDUP FOR NEBRASKA
NATIONAL WEATHER SERVICE OMAHA NE
1100 AM CST WED DEC 17 2014

NOTES: SATELLITE DATA IS BEING USED TO AUGMENT CLOUD COVER ABOVE
       12000 FEET.
       "FAIR" INDICATES FEW OR NO CLOUDS BELOW 12,000 FEET WITH NO
       SIGNIFICANT WEATHER AND/OR OBSTRUCTIONS TO VISIBILITY.

  * THESE STATIONS DO NOT REPORT WEATHER SUCH AS RAIN...SNOW OR FOG.

NEZ001>004-019>022-054>056-171800-
NEBRASKA PANHANDLE

CITY           SKY/WX    TMP DP  RH WIND       PRES   REMARKS
SCOTTSBLUFF    CLOUDY    19  17  92 SE6       30.03R WCI  11
ALLIANCE       CLOUDY    22  19  89 S15       30.04R WCI   9
CHADRON        CLOUDY    13  12  96 CALM      30.04S FOG
KIMBALL        PTSUNNY   23  22  96 CALM      29.96F
SIDNEY         FOG       20  18  92 S9        30.03F VSB 1/4 WCI   9
$$

NEZ057>060-069>072-079>082-171800-
SOUTHWEST NEBRASKA

CITY           SKY/WX    TMP DP  RH WIND       PRES   REMARKS
NORTH PLATTE   CLOUDY    21  19  92 SE6       30.18S WCI  13
IMPERIAL       CLOUDY    22  19  89 S10       30.13R WCI  11
MCCOOK         FOG       22  21  96 E10       30.19S VSB 3/4 WCI  11
$$

NEZ005>010-023>029-035>040-094-171800-
NORTH CENTRAL NEBRASKA

CITY           SKY/WX    TMP DP  RH WIND       PRES   REMARKS
VALENTINE      CLOUDY    20  18  92 S13       30.18R FOG     WCI   7
AINSWORTH      FOG       18  17  95 SE6       30.19F VSB 1   WCI  10
BROKEN BOW     CLOUDY    20  19  96 SE7       30.21S FOG     WCI  11
ORD            CLOUDY    19  16  88 SE6       30.25S WCI  11
$$

NEZ041-046>049-061>064-073>077-083>087-171800-
SOUTH CENTRAL NEBRASKA

CITY           SKY/WX    TMP DP  RH WIND       PRES   REMARKS
GRAND ISLAND   CLOUDY    22  17  81 SE6       30.29S WCI  14
AURORA         CLOUDY    23  20  87 SE6       30.29S WCI  15
HASTINGS       CLOUDY    22  18  85 SE6       30.26S WCI  14
KEARNEY *      CLOUDY    21  18  86 E7        30.25S WCI  13
$$

NEZ011>018-030>034-042>045-171800-
NORTHEAST NEBRASKA

CITY           SKY/WX    TMP DP  RH WIND       PRES   REMARKS
NORFOLK        MOSUNNY   23  15  71 CALM      30.30S
BLAIR          CLOUDY    22  15  75 CALM      30.33S
COLUMBUS *     PTSUNNY   21  12  68 CALM      30.33S
FREMONT        CLOUDY    22  15  75 E5        30.34S WCI  15
TEKAMAH        PTSUNNY   20  14  77 N6        30.36F WCI  12
$$

NEZ050>053-065>068-078-088>093-171800-
SOUTHEAST NEBRASKA

CITY           SKY/WX    TMP DP  RH WIND       PRES   REMARKS
LINCOLN        MOSUNNY   23  15  71 NE3       30.35S
OMAHA EPPLEY   PTSUNNY   22  14  71 CALM      30.37S
FALLS CITY     MOSUNNY   25  16  68 NE5       30.33F WCI  19
PLATTSMOUTH    CLOUDY    21  13  71 NE3       30.34S
$$

NEZ044-045-051>053-067-171800-
OMAHA AREA

CITY           SKY/WX    TMP DP  RH WIND       PRES   REMARKS
OMAHA EPPLEY   PTSUNNY   22  14  71 CALM      30.37S
BLAIR          CLOUDY    22  15  75 CALM      30.33S
FREMONT        CLOUDY    22  15  75 E5        30.34S WCI  15
OFFUTT AFB     PTSUNNY   22  13  69 NE3       30.35S
PLATTSMOUTH    CLOUDY    21  13  71 NE3       30.34S
$$



USA.gov is the U.S. government's official web portal to all federal, state and local government web resources and services.